Regional Weather Roundup
Issued by NWS

Home | Current Version | Previous Version | Text Only | Print | Product List | Glossary On
Versions: 1 2 3 4 5 6 7 8 9 10 11 12 13 14 15 16 17 18 19 20 21 22 23 24 25 26 27 28 29 30 31 32 33 34 35 36 37 38 39 40 41 42 43 44 45 46 47 48 49 50
000
ASUS43 KDMX 252307
RWRIA

WEATHER ROUNDUP FOR IOWA
NATIONAL WEATHER SERVICE DES MOINES IA
500 PM CST THU DEC 25 2014

NOTE: "FAIR" INDICATES FEW OR NO CLOUDS BELOW 12,000 FEET WITH NO
SIGNIFICANT WEATHER AND/OR OBSTRUCTIONS TO VISIBILITY.

* - THESE STATIONS ARE NOT NWS STATIONS...THUS NOT UNDER NWS
QUALITY CONTROL.  THEY ALSO DO NOT REPORT WEATHER SUCH
AS PRECIPITATION OR FOG.

IAZ001>003-012>014-020>022-031>034-043>046-260000-
   NORTHWEST IOWA

CITY           SKY/WX    TMP DP  RH WIND       PRES   REMARKS
CARROLL *      CLEAR     39  36  87 SE7       29.69R WCI  34
CHEROKEE *     CLEAR     36  32  87 E6        29.69R WCI  31
DENISON *      CLEAR     39  36  87 E7        29.64S WCI  34
LE MARS *      CLEAR     36  32  87 NE8       29.70R WCI  29
ORANGE CITY *  CLEAR     36  30  80 E5        29.69R WCI  32
SHELDON *      CLEAR     34  32  93 E8        29.70R WCI  27
SIOUX CITY     CLEAR     41  32  70 E5        29.67R
SPENCER        PTCLDY    34  29  82 NE6       29.72R WCI  29
STORM LAKE *   CLEAR     34  32  93 E10       29.69R WCI  26
$$

IAZ055>058-069>071-079>083-090>094-260000-
   SOUTHWEST IOWA

CITY           SKY/WX    TMP DP  RH WIND       PRES   REMARKS
ATLANTIC *     CLEAR     45  32  61 SE8       29.65S
AUDUBON *      CLEAR     41  32  70 CALM      29.67S
CLARINDA *     CLEAR     48  32  53 S13       29.67R
COUNCIL BLFS * CLEAR     43  32  65 S7        29.62R
CRESTON *      CLEAR     45  32  61 S14       29.68S
HARLAN  *      CLEAR     45  36  70 S8        29.68S
LAMONI         CLOUDY    47  31  53 S14       29.71R
RED OAK *      CLEAR     46  32  57 S9        29.65R
SHENANDOAH *   CLEAR     46  34  61 S12       29.65R
$$

IAZ047>049-059>061-072>074-084-260000-
   CENTRAL IOWA

CITY           SKY/WX    TMP DP  RH WIND       PRES   REMARKS
AMES           PTCLDY    43  32  65 SE10      29.73R
ANKENY *       CLEAR     45  32  61 SE9       29.73R
CHARITON *     CLOUDY    46  32  57 S15G21    29.73R
DES MOINES     MOCLDY    46  31  55 S10       29.73R
GRINNELL*      CLEAR     43  32  65 SE9       29.77R
KNOXVILLE *    MOCLDY    46  30  53 S12G17    29.73R
MARSHALLTOWN   CLEAR     42  32  67 SE9       29.74R
PELLA *        PTCLDY    46  32  57 S7        29.77R
PERRY *          N/A     41  36  81 SE8       29.70R
$$

IAZ004>006-015-016-023>025-035-036-260000-
   NORTH CENTRAL IOWA

CITY           SKY/WX    TMP DP  RH WIND       PRES   REMARKS
ALGONA *       CLEAR     34  34 100 E8        29.73R WCI  27
CLARION *      CLEAR     36  34  93 SE9       29.73R WCI  29
ESTHERVILLE    MOCLDY    32  30  92 NE6       29.72R WCI  26
FORT DODGE *   CLEAR     34  28  80 E7        29.72R WCI  28
MASON CITY     CLOUDY    34  30  85 E7        29.75S WCI  28
FOREST CITY *  CLEAR     34  30  86 E5        29.73F WCI  30
IOWA FALLS *     N/A     39  34  81 SE6       29.74R WCI  35
$$

IAZ007>011-017>019-026>030-037>042-050>054-066-260000-
   NORTHEAST IOWA

CITY           SKY/WX    TMP DP  RH WIND       PRES   REMARKS
CEDAR RAPIDS   CLEAR     42  32  67 SE12      29.80S
CHARLES CITY * MOCLDY    37  32  81 E8        29.77R WCI  31
CLINTON *      CLEAR     43  30  61 S10       29.90S
DECORAH *      CLEAR     37  32  81 SE5       29.78S WCI  34
DUBUQUE        MOCLDY    38  31  76 S10       29.84S WCI  31
MONTICELLO *   CLEAR     41  34  75 SE9       29.83F
OELWEIN *      PTCLDY    39  34  81 S14       29.78S WCI  31
WATERLOO       PTCLDY    42  33  70 SE9       29.76S
$$

IAZ064-065-067-068-078-260000-
   EAST CENTRAL IOWA

CITY           SKY/WX    TMP DP  RH WIND       PRES   REMARKS
DAVENPORT      PTCLDY    43  31  62 S13       29.89R
IOWA CITY      PTCLDY    41  32  70 SE10      29.84S
MT. PLEASANT * PTCLDY    43  32  65 S13       29.85S
MUSCATINE *    CLEAR     45  32  61 SE10      29.86S
QUAD CITIES    PTCLDY    44  32  62 SE9       29.88S
$$

IAZ062-063-075>077-085>089-095>099-260000-
   SOUTHEAST IOWA

CITY           SKY/WX    TMP DP  RH WIND       PRES   REMARKS
BURLINGTON     PTCLDY    45  32  60 S13       29.86F
FAIRFIELD *    CLEAR     45  30  57 SE16      29.80S
FORT MADISON * CLEAR     46  36  66 SE12G18   29.87S
KEOKUK *       CLEAR     46  32  57 SE10G16   29.85F
OSKALOOSA *      N/A     43  32  65 SE13      29.77S
CENTERVILLE *  CLEAR     46  32  57 SE15G21   29.77R
OTTUMWA        CLEAR     46  29  51 SE15      29.77S
WASHINGTON *   CLEAR     43  36  75 S13G18    29.82F
$$

ABBREVIATIONS USED IN REMARKS
   TC - TEMPERATURES IN CELSIUS
  WCI - WIND CHILL INDEX
   HX - HEAT INDEX
  VSB - VISIBILITY
$$



USA.gov is the U.S. government's official web portal to all federal, state and local government web resources and services.